WXM80 ListenWXM80 Stop

You find our weather info also at:

UK Metoffice

WeatherCloud

Weather Underground

Northeastern Weather Network

AWEKAS

Citizen Weather Observer Program (CWOP)

HAMweather, WeatherForYou, PWS Weather


Weather Underground History page Text

Daily Summary for October 19, 2017 Units:  Metric    English   Both
« Previous Day
Next Day »
Daily Weekly Monthly Yearly Custom
  High: Low: Average:
Temperature: 23.4 °C 11.2 °C 16.3 °C
Dew Point: 13.4 °C 9.2 °C 10.9 °C
Humidity: 89 % 42 % 73 %
Wind Speed: 13.2 km/h 0 km/h 2.3 km/h
Wind Gust: 22.2 km/h - -
Wind:- - SW
Pressure: 1024.9 hPa 1017.8 hPa -
Precipitation: 0 mm    
Historical Graphs
 
 
Tabular Data for October 19, 2017
Time Temperature Dew Point Pressure Wind Wind Speed Wind Gust Humidity Rainfall Rate (Hourly)
00:02 15.1 °C 11.8 °C 1024.6 hPa SSW 3.5 km/h 5.6 km/h 81 % 0 mm
00:07 15.1 °C 11.8 °C 1024.6 hPa WSW 0.2 km/h 1.9 km/h 81 % 0 mm
00:12 15.1 °C 11.6 °C 1024.6 hPa WSW 1.6 km/h 5.6 km/h 80 % 0 mm
00:17 15.1 °C 11.6 °C 1024.6 hPa WSW 1.6 km/h 11.1 km/h 80 % 0 mm
00:22 15.1 °C 11.6 °C 1024.6 hPa WSW 2.4 km/h 7.4 km/h 80 % 0 mm
00:27 15.1 °C 11.6 °C 1024.6 hPa West 6.4 km/h 9.3 km/h 80 % 0 mm
00:32 15.1 °C 11.4 °C 1024.6 hPa WSW 4 km/h 9.3 km/h 79 % 0 mm
00:37 15.1 °C 11.4 °C 1024.6 hPa WNW 5 km/h 9.3 km/h 79 % 0 mm
00:42 15.1 °C 11.4 °C 1024.3 hPa West 4.7 km/h 11.1 km/h 79 % 0 mm
00:47 15.1 °C 11.2 °C 1024.6 hPa WSW 4.5 km/h 9.3 km/h 78 % 0 mm
00:52 15.1 °C 11.2 °C 1024.6 hPa SW 2.4 km/h 12.9 km/h 78 % 0 mm
00:57 15.1 °C 11.2 °C 1024.6 hPa SW 4.2 km/h 6.4 km/h 78 % 0 mm
01:02 15 °C 11.2 °C 1024.6 hPa SSW 2.1 km/h 5.6 km/h 78 % 0 mm
01:08 14.9 °C 11.2 °C 1024.6 hPa SSW 0.8 km/h 3.7 km/h 78 % 0 mm
01:12 14.9 °C 11.2 °C 1024.6 hPa WSW 3.1 km/h 3.7 km/h 78 % 0 mm
01:17 14.8 °C 11.2 °C 1024.6 hPa WSW 1.1 km/h 1.9 km/h 79 % 0 mm
01:28 14.7 °C 11.1 °C 1024.6 hPa SW 0.8 km/h 1.9 km/h 79 % 0 mm
01:33 14.7 °C 11.1 °C 1024.6 hPa Calm   5.6 km/h 79 % 0 mm
01:38 14.6 °C 10.9 °C 1024.6 hPa SW 0.8 km/h 3.7 km/h 79 % 0 mm
01:43 14.5 °C 10.9 °C 1024.6 hPa SW 0.5 km/h 3.7 km/h 79 % 0 mm
01:48 14.4 °C 10.8 °C 1024.6 hPa SSW 2.6 km/h 5.6 km/h 79 % 0 mm
01:53 14.3 °C 10.7 °C 1024.3 hPa SSW 0.5 km/h 1.9 km/h 79 % 0 mm
01:58 14.2 °C 10.6 °C 1024.3 hPa WSW 2.4 km/h 5.6 km/h 79 % 0 mm
02:03 14.1 °C 10.7 °C 1024.3 hPa WSW 1 km/h 1.9 km/h 80 % 0 mm
02:08 14 °C 10.6 °C 1024.6 hPa WSW 0.5 km/h 3.7 km/h 80 % 0 mm
02:13 13.9 °C 10.6 °C 1024.3 hPa WSW 1.8 km/h 3.7 km/h 80 % 0 mm
02:18 13.9 °C 10.5 °C 1024.3 hPa WSW 0.6 km/h 3.2 km/h 80 % 0 mm
02:23 13.8 °C 10.4 °C 1024.3 hPa WSW 0.6 km/h 3.7 km/h 80 % 0 mm
02:28 13.8 °C 10.4 °C 1024.3 hPa Calm   1.9 km/h 80 % 0 mm
02:33 13.7 °C 10.3 °C 1024.3 hPa SW 0.8 km/h 3.7 km/h 80 % 0 mm
02:38 13.7 °C 10.3 °C 1024.3 hPa SW 0.5 km/h 3.7 km/h 80 % 0 mm
02:43 13.6 °C 10.2 °C 1024.3 hPa SW 0.6 km/h 3.7 km/h 80 % 0 mm
02:48 13.5 °C 10.1 °C 1024.3 hPa Calm     80 % 0 mm
02:53 13.4 °C 10.1 °C 1024.3 hPa Calm     80 % 0 mm
02:58 13.3 °C 9.9 °C 1024.3 hPa SW 3.1 km/h 5.6 km/h 80 % 0 mm
03:03 13.2 °C 9.8 °C 1024.3 hPa West 1 km/h 3.7 km/h 80 % 0 mm
03:08 13.2 °C 9.8 °C 1024.3 hPa West 0.8 km/h 3.7 km/h 80 % 0 mm
03:13 13.1 °C 9.9 °C 1024.3 hPa West 0.2 km/h 1.9 km/h 81 % 0 mm
03:18 13.1 °C 9.9 °C 1023.9 hPa West 0.2 km/h 1.9 km/h 81 % 0 mm
03:24 13 °C 9.8 °C 1023.9 hPa Calm     81 % 0 mm
03:29 12.9 °C 9.8 °C 1023.9 hPa Calm     81 % 0 mm
03:34 12.9 °C 9.7 °C 1023.9 hPa Calm   1.9 km/h 81 % 0 mm
03:39 12.8 °C 9.7 °C 1023.9 hPa Calm     81 % 0 mm
03:44 12.7 °C 9.6 °C 1023.9 hPa Calm     81 % 0 mm
03:49 12.7 °C 9.5 °C 1023.9 hPa Calm     81 % 0 mm
03:54 12.6 °C 9.6 °C 1023.9 hPa Calm     82 % 0 mm
04:00 12.6 °C 9.6 °C 1023.9 hPa WSW 0.5 km/h 3.7 km/h 82 % 0 mm
04:05 12.4 °C 9.6 °C 1023.9 hPa Calm   1.6 km/h 83 % 0 mm
04:10 12.4 °C 9.6 °C 1023.9 hPa West 1.8 km/h 3.7 km/h 83 % 0 mm
04:15 12.3 °C 9.5 °C 1023.9 hPa Calm   1.9 km/h 83 % 0 mm
04:20 12.3 °C 9.7 °C 1023.9 hPa SW 1.3 km/h 5.6 km/h 84 % 0 mm
04:25 12.3 °C 9.8 °C 1023.9 hPa West 0.5 km/h 1.9 km/h 85 % 0 mm
04:30 12.3 °C 9.8 °C 1023.9 hPa West 0.3 km/h 5.6 km/h 85 % 0 mm
04:35 12.3 °C 10 °C 1023.9 hPa Calm   1.9 km/h 86 % 0 mm
04:40 12.3 °C 10 °C 1023.9 hPa Calm     86 % 0 mm
04:45 12.2 °C 9.8 °C 1023.9 hPa Calm     85 % 0 mm
04:50 12.2 °C 9.7 °C 1023.9 hPa Calm     85 % 0 mm
04:55 12.2 °C 9.7 °C 1023.9 hPa Calm     85 % 0 mm
05:00 12.1 °C 9.7 °C 1023.9 hPa Calm     85 % 0 mm
05:05 12.1 °C 9.6 °C 1023.9 hPa Calm     85 % 0 mm
05:10 12 °C 9.4 °C 1023.9 hPa Calm     84 % 0 mm
05:15 11.9 °C 9.3 °C 1023.9 hPa Calm     84 % 0 mm
05:21 11.9 °C 9.3 °C 1023.9 hPa Calm     84 % 0 mm
05:26 11.8 °C 9.4 °C 1023.9 hPa Calm     85 % 0 mm
05:31 11.8 °C 9.3 °C 1024.3 hPa Calm     85 % 0 mm
05:36 11.8 °C 9.3 °C 1024.3 hPa Calm   1.6 km/h 85 % 0 mm
05:41 11.7 °C 9.4 °C 1024.3 hPa Calm     86 % 0 mm
05:46 11.7 °C 9.4 °C 1024.3 hPa Calm   1.6 km/h 86 % 0 mm
05:51 11.6 °C 9.3 °C 1024.3 hPa Calm   1.6 km/h 86 % 0 mm
05:56 11.6 °C 9.3 °C 1024.3 hPa Calm     86 % 0 mm
06:01 11.5 °C 9.2 °C 1024.3 hPa Calm     86 % 0 mm
06:06 11.4 °C 9.2 °C 1024.3 hPa Calm   1.9 km/h 86 % 0 mm
06:11 11.4 °C 9.3 °C 1023.9 hPa Calm     87 % 0 mm
06:16 11.3 °C 9.2 °C 1024.3 hPa Calm     87 % 0 mm
06:21 11.3 °C 9.2 °C 1023.9 hPa Calm     87 % 0 mm
06:26 11.3 °C 9.2 °C 1023.9 hPa SW 2.1 km/h 5.6 km/h 87 % 0 mm
06:31 11.3 °C 9.4 °C 1023.9 hPa SW 0.3 km/h 1.9 km/h 88 % 0 mm
06:36 11.3 °C 9.4 °C 1023.9 hPa Calm   1.9 km/h 88 % 0 mm
06:41 11.3 °C 9.4 °C 1023.9 hPa Calm     88 % 0 mm
06:46 11.3 °C 9.4 °C 1023.9 hPa Calm     88 % 0 mm
06:51 11.2 °C 9.3 °C 1023.9 hPa Calm     88 % 0 mm
06:56 11.2 °C 9.3 °C 1023.9 hPa Calm     88 % 0 mm
07:06 11.2 °C 9.3 °C 1023.9 hPa Calm     88 % 0 mm
07:11 11.2 °C 9.3 °C 1023.9 hPa Calm     88 % 0 mm
07:16 11.2 °C 9.3 °C 1023.9 hPa Calm   1.9 km/h 88 % 0 mm
07:21 11.2 °C 9.3 °C 1024.6 hPa SW 0.3 km/h 1.9 km/h 88 % 0 mm
07:26 11.2 °C 9.3 °C 1023.9 hPa SW 0.2 km/h 1.9 km/h 88 % 0 mm
07:31 11.3 °C 9.4 °C 1024.9 hPa Calm   1.9 km/h 88 % 0 mm
07:37 11.3 °C 9.4 °C 1023.9 hPa WSW 0.3 km/h 1.9 km/h 88 % 0 mm
07:42 11.4 °C 9.7 °C 1023.9 hPa Calm     89 % 0 mm
07:47 11.4 °C 9.7 °C 1023.9 hPa Calm   1.6 km/h 89 % 0 mm
07:52 11.6 °C 9.6 °C 1023.9 hPa WSW 0.2 km/h 1.9 km/h 88 % 0 mm
07:57 11.7 °C 9.7 °C 1024.9 hPa Calm   1.9 km/h 88 % 0 mm
08:02 11.8 °C 9.8 °C 1024.6 hPa WSW 0.2 km/h 3.7 km/h 88 % 0 mm
08:07 11.9 °C 9.8 °C 1024.9 hPa WSW 0.3 km/h 1.9 km/h 87 % 0 mm
08:12 11.9 °C 9.8 °C 1023.9 hPa WSW 0.5 km/h 1.9 km/h 87 % 0 mm
08:17 12.1 °C 9.9 °C 1023.9 hPa WSW 0.5 km/h 3.7 km/h 87 % 0 mm
08:22 12.1 °C 10 °C 1023.9 hPa WSW 0.5 km/h 3.2 km/h 87 % 0 mm
08:27 12.2 °C 10.1 °C 1024.9 hPa Calm     87 % 0 mm
08:32 12.3 °C 10 °C 1024.9 hPa Calm   1.9 km/h 86 % 0 mm
08:37 12.4 °C 10.1 °C 1024.9 hPa WSW 3.5 km/h 5.6 km/h 86 % 0 mm
08:42 12.6 °C 10.1 °C 1024.9 hPa SSW 0.6 km/h 5.6 km/h 85 % 0 mm
08:47 12.7 °C 10.2 °C 1024.9 hPa SW 4.2 km/h 6.4 km/h 85 % 0 mm
08:52 12.9 °C 10.1 °C 1024.9 hPa WSW 2.7 km/h 4.8 km/h 83 % 0 mm
08:57 13.2 °C 10.3 °C 1024.9 hPa SSW 6.3 km/h 9.3 km/h 83 % 0 mm
09:02 13.3 °C 10.3 °C 1024.9 hPa SW 5.8 km/h 9.3 km/h 82 % 0 mm
09:07 13.5 °C 10.5 °C 1024.9 hPa SSW 4.3 km/h 7.4 km/h 82 % 0 mm
09:12 13.7 °C 10.5 °C 1024.9 hPa WSW 1.6 km/h 3.2 km/h 81 % 0 mm
09:17 13.9 °C 10.7 °C 1024.9 hPa WSW 0.5 km/h 5.6 km/h 81 % 0 mm
09:22 14.1 °C 10.8 °C 1024.9 hPa SW 4.3 km/h 7.4 km/h 81 % 0 mm
09:27 14.2 °C 10.8 °C 1024.9 hPa WSW 3.7 km/h 5.6 km/h 80 % 0 mm
09:32 14.4 °C 10.8 °C 1023.9 hPa SW 4.7 km/h 5.6 km/h 79 % 0 mm
09:38 14.7 °C 10.7 °C 1024.9 hPa SW 4.8 km/h 7.4 km/h 77 % 0 mm
09:43 14.8 °C 10.8 °C 1024.9 hPa SSW 4 km/h 7.4 km/h 77 % 0 mm
09:48 15.1 °C 10.8 °C 1024.3 hPa SW 3.7 km/h 6.4 km/h 76 % 0 mm
09:53 15.3 °C 10.9 °C 1024.3 hPa SSW 4.7 km/h 11.3 km/h 75 % 0 mm
09:58 15.6 °C 10.9 °C 1024.3 hPa WSW 4 km/h 9.3 km/h 74 % 0 mm
10:03 15.9 °C 11.1 °C 1024.3 hPa SW 6.3 km/h 11.1 km/h 73 % 0 mm
10:08 16.3 °C 10.8 °C 1023.9 hPa WSW 6 km/h 11.1 km/h 70 % 0 mm
10:13 16.7 °C 10.9 °C 1023.9 hPa SSW 1.8 km/h 11.1 km/h 69 % 0 mm
10:18 16.9 °C 10.9 °C 1023.6 hPa SW 4 km/h 11.1 km/h 68 % 0 mm
10:23 17.1 °C 10.9 °C 1023.9 hPa SSW 3.7 km/h 8 km/h 67 % 0 mm
10:28 17.2 °C 11.3 °C 1023.6 hPa SSW 1.8 km/h 5.6 km/h 68 % 0 mm
10:33 17.4 °C 10.9 °C 1023.6 hPa SW 1.3 km/h 9.3 km/h 66 % 0 mm
10:38 17.5 °C 11.1 °C 1023.6 hPa WSW 5.8 km/h 13 km/h 66 % 0 mm
10:43 17.6 °C 11.2 °C 1023.6 hPa SSW 5.3 km/h 11.3 km/h 66 % 0 mm
10:48 17.7 °C 10.8 °C 1023.6 hPa SW 2.1 km/h 13 km/h 64 % 0 mm
10:53 17.8 °C 10.9 °C 1023.2 hPa SW 2.4 km/h 13 km/h 64 % 0 mm
10:58 18 °C 10.8 °C 1023.6 hPa SSW 4.2 km/h 7.4 km/h 63 % 0 mm
11:03 18.2 °C 10.5 °C 1023.2 hPa West 7.1 km/h 14.8 km/h 61 % 0 mm
11:08 18.3 °C 10.7 °C 1023.2 hPa SSW 9 km/h 11.3 km/h 61 % 0 mm
11:14 18.6 °C 10.9 °C 1022.9 hPa SW 9 km/h 14.8 km/h 61 % 0 mm
11:19 18.8 °C 11.2 °C 1023.2 hPa WNW 6.1 km/h 13 km/h 61 % 0 mm
11:24 19.3 °C 11.1 °C 1023.2 hPa SSW 8 km/h 18.5 km/h 59 % 0 mm
11:29 19.7 °C 10.7 °C 1023.2 hPa WSW 7.4 km/h 18.5 km/h 56 % 0 mm
11:39 20.6 °C 10.3 °C 1022.9 hPa West 13.2 km/h 22.2 km/h 52 % 0 mm
11:44 20.9 °C 11.2 °C 1022.9 hPa South 4 km/h 9.3 km/h 54 % 0 mm
11:49 21.2 °C 11.2 °C 1022.9 hPa WSW 10.6 km/h 17.7 km/h 53 % 0 mm
11:54 21.4 °C 11.2 °C 1022.9 hPa WSW 10.9 km/h 16.7 km/h 52 % 0 mm
11:59 21.8 °C 11.8 °C 1022.6 hPa SSW 10.5 km/h 16.7 km/h 53 % 0 mm
12:04 22 °C 11.1 °C 1022.9 hPa WSW 9.8 km/h 16.1 km/h 50 % 0 mm
12:06 22.1 °C 11.2 °C 1022.6 hPa SSW 6.3 km/h 13 km/h 50 % 0 mm
12:11 22.2 °C 11 °C 1022.2 hPa WSW 7.6 km/h 12.9 km/h 49 % 0 mm
12:17 22.3 °C 11.1 °C 1022.2 hPa South 4.2 km/h 14.8 km/h 49 % 0 mm
12:22 22.5 °C 10.6 °C 1022.2 hPa SSW 6.6 km/h 9.3 km/h 47 % 0 mm
12:27 22.6 °C 10.7 °C 1022.2 hPa SW 8.7 km/h 18.5 km/h 47 % 0 mm
12:32 22.5 °C 10.3 °C 1022.2 hPa WSW 6.6 km/h 18.5 km/h 46 % 0 mm
12:37 22.5 °C 10.9 °C 1021.9 hPa SSW 7.6 km/h 18.5 km/h 48 % 0 mm
12:42 22.5 °C 10.6 °C 1021.9 hPa WSW 3.7 km/h 9.3 km/h 47 % 0 mm
12:47 22.6 °C 11 °C 1021.9 hPa South 7.1 km/h 14.8 km/h 48 % 0 mm
12:52 22.7 °C 12 °C 1021.9 hPa SSW 6.3 km/h 16.7 km/h 51 % 0 mm
12:57 22.8 °C 10.6 °C 1021.6 hPa South 2.3 km/h 7.4 km/h 46 % 0 mm
13:02 22.8 °C 11.2 °C 1021.2 hPa SE 6 km/h 9.3 km/h 48 % 0 mm
13:07 23 °C 11.1 °C 1021.2 hPa South 4.8 km/h 9.7 km/h 47 % 0 mm
13:12 23.1 °C 10.1 °C 1021.2 hPa South 9.2 km/h 14.8 km/h 44 % 0 mm
13:17 23.1 °C 10.2 °C 1020.9 hPa SSE 1.9 km/h 8 km/h 44 % 0 mm
13:22 23.2 °C 11.2 °C 1020.9 hPa WSW 2.3 km/h 4.8 km/h 47 % 0 mm
13:27 23.3 °C 11 °C 1020.9 hPa SSW 5.6 km/h 14.8 km/h 46 % 0 mm
13:32 23.3 °C 10.7 °C 1020.9 hPa SSW 1.9 km/h 4.8 km/h 45 % 0 mm
13:37 23.3 °C 9.7 °C 1020.9 hPa SE 4 km/h 9.3 km/h 42 % 0 mm
13:42 23.3 °C 10.4 °C 1020.9 hPa SSE 0.8 km/h 3.7 km/h 44 % 0 mm
13:47 23.3 °C 11.4 °C 1020.5 hPa SSW 3.4 km/h 11.1 km/h 47 % 0 mm
13:52 23.4 °C 11.4 °C 1020.5 hPa SW 2.7 km/h 9.3 km/h 47 % 0 mm
13:57 23.3 °C 11.1 °C 1020.5 hPa SSW 2.4 km/h 5.6 km/h 46 % 0 mm
14:02 23.3 °C 11.1 °C 1021.6 hPa SSE 5.8 km/h 11.1 km/h 46 % 0 mm
14:07 23.3 °C 10.7 °C 1020.5 hPa SW 2.7 km/h 14.5 km/h 45 % 0 mm
14:12 23.3 °C 10.4 °C 1020.2 hPa SW 2.6 km/h 5.6 km/h 44 % 0 mm
14:18 23.3 °C 11.1 °C 1020.2 hPa WSW 4 km/h 18.5 km/h 46 % 0 mm
14:23 23.2 °C 10.6 °C 1019.9 hPa SW 8.7 km/h 18.5 km/h 45 % 0 mm
14:28 23.2 °C 10.6 °C 1019.9 hPa SW 3.9 km/h 9.7 km/h 45 % 0 mm
14:33 23.2 °C 9.9 °C 1019.9 hPa SW 7.7 km/h 11.3 km/h 43 % 0 mm
14:38 23.1 °C 10.2 °C 1020.5 hPa SW 3.9 km/h 11.1 km/h 44 % 0 mm
14:43 23 °C 10.4 °C 1019.5 hPa WSW 1.1 km/h 3.7 km/h 45 % 0 mm
14:48 23 °C 10.8 °C 1019.5 hPa WSW 6.8 km/h 11.1 km/h 46 % 0 mm
14:53 22.9 °C 10.7 °C 1019.2 hPa SSE 2.4 km/h 11.1 km/h 46 % 0 mm
14:58 22.8 °C 10.9 °C 1019.5 hPa SSW 2.6 km/h 7.4 km/h 47 % 0 mm
15:03 22.7 °C 11.2 °C 1019.5 hPa East 0.3 km/h 5.6 km/h 48 % 0 mm
15:14 22.5 °C 10.9 °C 1019.5 hPa WSW 4.7 km/h 9.3 km/h 48 % 0 mm
15:19 22.3 °C 11.4 °C 1019.5 hPa SSW 4.8 km/h 8 km/h 50 % 0 mm
15:24 22.1 °C 10.9 °C 1019.5 hPa SSW 2.9 km/h 11.1 km/h 49 % 0 mm
15:29 21.9 °C 11.3 °C 1019.5 hPa SSW 4.3 km/h 5.6 km/h 51 % 0 mm
15:34 21.7 °C 11.1 °C 1019.2 hPa WSW 1.9 km/h 5.6 km/h 51 % 0 mm
15:39 21.6 °C 11 °C 1019.5 hPa SSW 5.5 km/h 7.4 km/h 51 % 0 mm
15:44 21.3 °C 10.8 °C 1019.2 hPa SE 4.8 km/h 9.3 km/h 51 % 0 mm
15:49 21.1 °C 11.1 °C 1019.2 hPa SSW 6.8 km/h 16.7 km/h 53 % 0 mm
15:54 20.9 °C 10.7 °C 1018.8 hPa South 1.9 km/h 5.6 km/h 52 % 0 mm
15:59 20.7 °C 11.1 °C 1018.8 hPa SSW 0.2 km/h 1.9 km/h 54 % 0 mm
16:04 20.6 °C 10.9 °C 1018.8 hPa SW 6.8 km/h 11.1 km/h 54 % 0 mm
16:09 20.4 °C 11.1 °C 1018.8 hPa SSW 8.5 km/h 11.3 km/h 55 % 0 mm
16:14 20.3 °C 11 °C 1018.8 hPa SSW 3.2 km/h 8 km/h 55 % 0 mm
16:19 20.2 °C 10.8 °C 1018.5 hPa South 0.8 km/h 3.7 km/h 55 % 0 mm
16:24 20.1 °C 11 °C 1018.5 hPa SSW 2.6 km/h 9.3 km/h 56 % 0 mm
16:29 20 °C 11.2 °C 1018.5 hPa SSW 4.2 km/h 5.6 km/h 57 % 0 mm
16:34 19.9 °C 11.4 °C 1018.5 hPa SW 1.3 km/h 4.8 km/h 58 % 0 mm
16:39 19.8 °C 11.6 °C 1018.2 hPa WSW 0.3 km/h 3.2 km/h 59 % 0 mm
16:45 19.7 °C 11.7 °C 1018.2 hPa SSW 5 km/h 6.4 km/h 60 % 0 mm
16:50 19.6 °C 11.9 °C 1018.2 hPa SSW 5 km/h 11.1 km/h 61 % 0 mm
16:55 19.5 °C 12 °C 1018.2 hPa SSW 1.3 km/h 7.4 km/h 62 % 0 mm
16:59 19.4 °C 12.2 °C 1019.2 hPa SW 3.9 km/h 5.6 km/h 63 % 0 mm
17:04 19.3 °C 12.1 °C 1019.2 hPa SW 1.9 km/h 4.8 km/h 63 % 0 mm
17:09 19.2 °C 12.2 °C 1019.2 hPa SSE 0.3 km/h 1.6 km/h 64 % 0 mm
17:14 19.1 °C 12.4 °C 1019.2 hPa SSW 1.8 km/h 3.7 km/h 65 % 0 mm
17:19 19 °C 12.3 °C 1019.2 hPa SSW 1.1 km/h 7.4 km/h 65 % 0 mm
17:24 18.9 °C 12.4 °C 1019.2 hPa SSE 2.3 km/h 5.6 km/h 66 % 0 mm
17:29 18.8 °C 12.3 °C 1019.2 hPa ENE 0.8 km/h 9.3 km/h 66 % 0 mm
17:34 18.7 °C 12.2 °C 1019.2 hPa SSW 1.1 km/h 3.7 km/h 66 % 0 mm
17:40 18.6 °C 12.3 °C 1018.2 hPa South 0.2 km/h 5.6 km/h 67 % 0 mm
17:45 18.4 °C 12.2 °C 1018.2 hPa SSE 1 km/h 5.6 km/h 67 % 0 mm
17:50 18.3 °C 12.3 °C 1018.2 hPa South 1.1 km/h 3.7 km/h 68 % 0 mm
17:55 18.3 °C 12.3 °C 1018.2 hPa South 0.3 km/h 3.7 km/h 68 % 0 mm
18:00 18.2 °C 12.4 °C 1018.2 hPa South 0.6 km/h 3.7 km/h 69 % 0 mm
18:05 18 °C 12.4 °C 1017.8 hPa SSW 0.2 km/h 3.7 km/h 70 % 0 mm
18:10 17.9 °C 12.6 °C 1017.8 hPa SSW 1.1 km/h 3.7 km/h 71 % 0 mm
18:15 17.7 °C 12.6 °C 1017.8 hPa SSW 0.8 km/h 3.7 km/h 72 % 0 mm
18:20 17.6 °C 12.5 °C 1017.8 hPa SSW 0.3 km/h 1.9 km/h 72 % 0 mm
18:25 17.5 °C 12.6 °C 1017.8 hPa SSW 2.6 km/h 5.6 km/h 73 % 0 mm
18:30 17.3 °C 12.8 °C 1017.8 hPa SW 0.5 km/h 3.7 km/h 75 % 0 mm
18:35 17.2 °C 12.9 °C 1017.8 hPa WSW 1.3 km/h 5.6 km/h 76 % 0 mm
18:40 17.1 °C 12.8 °C 1019.2 hPa WSW 2.3 km/h 5.6 km/h 76 % 0 mm
18:45 16.9 °C 13.1 °C 1018.2 hPa SW 1.3 km/h 5.6 km/h 78 % 0 mm
18:50 16.8 °C 13 °C 1018.8 hPa SW 0.6 km/h 3.2 km/h 78 % 0 mm
18:55 16.7 °C 13.1 °C 1019.2 hPa SW 0.5 km/h 1.9 km/h 79 % 0 mm
19:00 16.7 °C 13 °C 1018.8 hPa SW 3.5 km/h 8 km/h 79 % 0 mm
19:05 16.6 °C 13.1 °C 1018.8 hPa SW 1.4 km/h 5.6 km/h 80 % 0 mm
19:11 16.5 °C 13.2 °C 1019.2 hPa SSW 0.5 km/h 5.6 km/h 81 % 0 mm
19:16 16.4 °C 13.2 °C 1018.8 hPa SW 1.6 km/h 4.8 km/h 81 % 0 mm
19:21 16.4 °C 13.1 °C 1018.8 hPa Calm   4.8 km/h 81 % 0 mm
19:26 16.3 °C 13.3 °C 1018.8 hPa Calm   4.8 km/h 82 % 0 mm
19:31 16.3 °C 13.4 °C 1018.8 hPa SW 1.6 km/h 4.8 km/h 83 % 0 mm
19:36 16.2 °C 13.3 °C 1018.8 hPa Calm   6.4 km/h 83 % 0 mm
19:41 16.2 °C 13.3 °C 1018.8 hPa Calm   1.6 km/h 83 % 0 mm
19:46 16.2 °C 13.3 °C 1018.8 hPa Calm   6.4 km/h 83 % 0 mm
19:51 16.1 °C 13.2 °C 1018.8 hPa Calm   4.8 km/h 83 % 0 mm
19:56 16.1 °C 13.4 °C 1018.8 hPa Calm   3.2 km/h 84 % 0 mm
20:01 16.1 °C 13.3 °C 1018.8 hPa Calm   1.9 km/h 84 % 0 mm
20:06 16 °C 13.3 °C 1019.2 hPa WSW 0.2 km/h 1.9 km/h 84 % 0 mm
20:11 15.9 °C 13.2 °C 1018.8 hPa Calm   1.9 km/h 84 % 0 mm
20:16 15.9 °C 13.2 °C 1018.8 hPa WSW 0.2 km/h 1.9 km/h 84 % 0 mm
20:21 15.8 °C 13.1 °C 1018.8 hPa Calm     84 % 0 mm
20:26 15.8 °C 13.1 °C 1018.8 hPa WSW 1 km/h 3.2 km/h 84 % 0 mm
20:31 15.7 °C 13.2 °C 1018.8 hPa WSW 0.3 km/h 1.9 km/h 85 % 0 mm
20:36 15.7 °C 13.2 °C 1018.8 hPa WSW 0.2 km/h 1.9 km/h 85 % 0 mm
20:41 15.7 °C 13.2 °C 1018.8 hPa WSW 0.2 km/h 1.9 km/h 85 % 0 mm
20:46 15.6 °C 12.9 °C 1018.8 hPa WSW 1 km/h 3.7 km/h 84 % 0 mm
20:51 15.6 °C 12.9 °C 1018.8 hPa WSW 0.3 km/h 3.2 km/h 84 % 0 mm
20:56 15.6 °C 12.9 °C 1018.2 hPa WSW 0.6 km/h 3.7 km/h 84 % 0 mm
21:01 15.5 °C 12.8 °C 1018.8 hPa WSW 2.1 km/h 5.6 km/h 84 % 0 mm
21:06 15.4 °C 12.8 °C 1018.2 hPa WSW 0.3 km/h 3.7 km/h 84 % 0 mm
21:11 15.3 °C 12.4 °C 1018.5 hPa WSW 2.9 km/h 4.8 km/h 83 % 0 mm
21:16 15.3 °C 12.4 °C 1018.5 hPa SW 1.9 km/h 5.6 km/h 83 % 0 mm
21:26 15.2 °C 12.2 °C 1018.5 hPa SW 2.3 km/h 5.6 km/h 82 % 0 mm
21:31 15.2 °C 12.1 °C 1018.5 hPa SW 1.3 km/h 3.7 km/h 82 % 0 mm
21:36 15.2 °C 11.9 °C 1018.5 hPa WSW 2.1 km/h 6.4 km/h 81 % 0 mm
21:41 15.1 °C 11.9 °C 1018.5 hPa SW 0.3 km/h 1.9 km/h 81 % 0 mm
21:46 15.1 °C 11.9 °C 1018.5 hPa SSW 2.3 km/h 5.6 km/h 81 % 0 mm
21:51 15.1 °C 11.6 °C 1018.5 hPa Calm   3.7 km/h 80 % 0 mm
21:57 15.1 °C 11.4 °C 1018.5 hPa WSW 1.1 km/h 5.6 km/h 79 % 0 mm
22:02 15 °C 11.4 °C 1018.5 hPa SW 0.3 km/h 1.9 km/h 79 % 0 mm
22:07 15 °C 11.2 °C 1018.5 hPa SW 0.6 km/h 3.7 km/h 78 % 0 mm
22:12 15 °C 11.2 °C 1018.5 hPa SSW 0.5 km/h 3.7 km/h 78 % 0 mm
22:17 14.9 °C 11.2 °C 1018.5 hPa Calm   1.9 km/h 78 % 0 mm
22:22 14.9 °C 10.9 °C 1018.5 hPa SW 1.4 km/h 7.4 km/h 77 % 0 mm
22:27 14.9 °C 10.9 °C 1018.2 hPa SSW 2.1 km/h 5.6 km/h 77 % 0 mm
22:32 14.9 °C 10.7 °C 1018.8 hPa SSW 1.1 km/h 7.4 km/h 76 % 0 mm
22:37 14.9 °C 10.7 °C 1018.5 hPa West 2.4 km/h 6.4 km/h 76 % 0 mm
22:42 14.9 °C 10.7 °C 1019.2 hPa SSW 1.1 km/h 7.4 km/h 76 % 0 mm
22:47 14.9 °C 10.7 °C 1018.5 hPa SW 3.5 km/h 5.6 km/h 76 % 0 mm
22:52 15 °C 10.8 °C 1019.2 hPa SW 1.6 km/h 5.6 km/h 76 % 0 mm
22:57 15 °C 10.6 °C 1019.2 hPa SW 2.1 km/h 4.8 km/h 75 % 0 mm
23:02 15 °C 10.6 °C 1018.8 hPa SW 5.5 km/h 11.1 km/h 75 % 0 mm
23:07 15.1 °C 10.7 °C 1018.2 hPa SW 5.1 km/h 6.4 km/h 75 % 0 mm
23:13 15.2 °C 10.8 °C 1018.2 hPa SW 2.1 km/h 4.8 km/h 75 % 0 mm
23:18 15.2 °C 10.8 °C 1017.8 hPa Calm   3.7 km/h 75 % 0 mm
23:23 15.2 °C 10.6 °C 1018.2 hPa WSW 4.5 km/h 9.3 km/h 74 % 0 mm
23:26 15.2 °C 10.6 °C 1017.8 hPa WSW 3.9 km/h 5.6 km/h 74 % 0 mm
23:29 15.2 °C 10.6 °C 1017.8 hPa SW 3.7 km/h 13 km/h 74 % 0 mm
23:34 15.2 °C 10.6 °C 1017.8 hPa SSW 4 km/h 5.6 km/h 74 % 0 mm
23:39 15.2 °C 10.6 °C 1017.8 hPa SSW 3.9 km/h 7.4 km/h 74 % 0 mm
23:44 15.2 °C 10.6 °C 1017.8 hPa WSW 0.8 km/h 3.7 km/h 74 % 0 mm
23:49 15.2 °C 10.6 °C 1017.8 hPa SSW 3.9 km/h 5.6 km/h 74 % 0 mm
23:54 15.2 °C 10.6 °C 1017.8 hPa Calm   1.9 km/h 74 % 0 mm
Crab Meadow Weather
Compliments of Weather Underground - 3 mb

Script developed by  Jim McMurry - jmcmurry@mwt.net Adapted for the template by  Wim van der Kuil - Leuven-Template.eu

Weather Terms: Frost Advisory - Widespread frost during the growing season. Frost generally occurs with fair skies and light winds.